RYR979 EDDF-EDDM

Flight info

Callsign RYR979
Flight time N/A
Altitude 23000
Route CINDY2D CINDY Z74 HAREM T104 ROKIL ROKIL1B
Aircraft B738/M-SDE2E3FGHIRWXY/LB1

Departure

Time 2026-05-05 10:11
Airport Frankfurt Main Airport (EDDF)

Arrival

Time N/A
Airport Munich Airport (EDDM)
Time Latitude Longitude Altitude Speed Heading
2026-05-05 09:35 50.03623 8.53788 340 ft 0 kts 160°
2026-05-05 10:01 50.03623 8.53789 340 ft 0 kts 160°
2026-05-05 10:01 50.03618 8.53792 340 ft 1 kts 160°
2026-05-05 10:02 50.03613 8.53795 340 ft 2 kts 159°
2026-05-05 10:02 50.03597 8.53804 340 ft 3 kts 159°
2026-05-05 10:02 50.03575 8.53817 336 ft 2 kts 159°
2026-05-05 10:02 50.03573 8.53817 339 ft 0 kts 159°
2026-05-05 10:06 50.03572 8.53818 339 ft 1 kts 160°
2026-05-05 10:06 50.03539 8.53802 338 ft 10 kts 209°
2026-05-05 10:06 50.03518 8.53731 335 ft 10 kts 249°
2026-05-05 10:06 50.03492 8.53619 338 ft 10 kts 249°
2026-05-05 10:07 50.03468 8.53521 333 ft 10 kts 249°
2026-05-05 10:07 50.03444 8.53422 334 ft 11 kts 251°
2026-05-05 10:07 50.03408 8.53267 336 ft 18 kts 249°
2026-05-05 10:07 50.03364 8.53089 335 ft 13 kts 249°
2026-05-05 10:08 50.03334 8.52961 333 ft 12 kts 249°
2026-05-05 10:08 50.03304 8.52840 331 ft 12 kts 250°
2026-05-05 10:08 50.03278 8.52726 332 ft 11 kts 249°
2026-05-05 10:08 50.03244 8.52627 334 ft 10 kts 221°
2026-05-05 10:09 50.03183 8.52596 332 ft 0 kts 180°
2026-05-05 10:11 50.03171 8.52596 331 ft 14 kts 180°
2026-05-05 10:11 50.02754 8.52600 333 ft 103 kts 179°
2026-05-05 10:11 50.01773 8.52609 375 ft 173 kts 180°
2026-05-05 10:11 50.00500 8.52614 1192 ft 184 kts 180°
2026-05-05 10:12 49.99245 8.52633 2440 ft 181 kts 178°
2026-05-05 10:12 49.97943 8.52741 3126 ft 199 kts 175°
2026-05-05 10:12 49.96517 8.52943 3659 ft 215 kts 176°
2026-05-05 10:12 49.94965 8.53055 3815 ft 226 kts 178°
2026-05-05 10:13 49.93401 8.53139 3970 ft 225 kts 178°
2026-05-05 10:13 49.91819 8.53228 4004 ft 230 kts 178°
2026-05-05 10:13 49.90213 8.53325 3977 ft 233 kts 178°
2026-05-05 10:13 49.88598 8.53430 3997 ft 231 kts 178°
2026-05-05 10:14 49.86994 8.53537 4004 ft 229 kts 178°
2026-05-05 10:14 49.85398 8.53646 3996 ft 229 kts 178°